Change the Weather History Date:

Thursday, September 1, 2011

  Actual Average Record
Temperature  
Mean Temperature 97 °F 74 °F  
Max Temperature 109 °F 86 °F 109 °F (2011)
Min Temperature 86 °F 61 °F 54 °F (2001)
Degree Days  
Heating Degree Days 0 0  
Month to date heating degree days 0  
Since 1 July heating degree days 3  
Cooling Degree Days 32 9  
Month to date cooling degree days 9  
Year to date cooling degree days 1192  
Growing Degree Days 47 (Base 50)    
Moisture  
Dew Point 53 °F    
Average Humidity 26    
Maximum Humidity 37    
Minimum Humidity 15    
Precipitation  
Precipitation 0.00 in 0.16 in 0.09 in (2014)
Month to date precipitation 0.16  
Year to date precipitation 24.70  
Sea Level Pressure  
Sea Level Pressure 29.79 in    
Wind  
Wind Speed 14 mph (SSW)    
Max Wind Speed 23 mph    
Max Gust Speed 32 mph    
Visibility 10 miles    
Events Thunderstorm    
T = Trace of Precipitation, MM = Missing Value Source: NWS Daily Summary

Daily Weather History Graph

Daily Weather History Graph

Search for Another Location

Airport or City:

Trip Planner

Search our weather history database for the weather conditions in past years. The results will help you decide how hot, cold, wet, or windy it might be!

Date:

Astronomy

Sep. 01, 2011 Rise Set
Actual Time 6:55 AM CDT 7:57 PM CDT
Civil Twilight 6:27 AM CDT 8:25 PM CDT
Nautical Twilight 5:55 AM CDT 8:57 PM CDT
Astronomical Twilight 5:21 AM CDT 9:31 PM CDT
Moon 11:14 AM CDT (9/1) 9:52 PM CDT (9/1)
Length of Visible Light 13h 57m
Length of Day
13h 02m
Waxing Crescent, 18% of the Moon is Illuminated
Sep 1
Waxing Crescent
Sep 4
First Quarter
Sep 12
Full
Sep 20
Last Quarter
Sep 27
New

Hourly Weather History & Observations

Time (CDT) Temp. Heat Index Dew Point Humidity Pressure Visibility Wind Dir Wind Speed Gust Speed Precip Events Conditions
12:52 AM 87.1 °F 86.1 °F 57.9 °F 37% 29.78 in 10.0 mi SSW 8.1 mph - N/A   Clear
1:52 AM 86.0 °F 84.9 °F 57.0 °F 37% 29.78 in 10.0 mi SSW 9.2 mph - N/A   Clear
2:52 AM 86.0 °F 84.5 °F 55.0 °F 35% 29.78 in 10.0 mi SSW 13.8 mph - N/A   Clear
3:52 AM 87.1 °F 84.9 °F 53.1 °F 31% 29.79 in 10.0 mi SSW 17.3 mph 23.0 mph N/A   Clear
4:52 AM 86.0 °F 84.0 °F 53.1 °F 32% 29.79 in 10.0 mi SSW 12.7 mph - N/A   Clear
5:48 AM 87.8 °F - 51.8 °F 29% 29.84 in 10.0 mi SSW 13.8 mph 23.0 mph N/A Thunderstorm Clear
5:52 AM 88.0 °F - 51.1 °F 28% 29.80 in 10.0 mi SSW 12.7 mph 21.9 mph N/A Thunderstorm Clear
6:38 AM 89.6 °F - 51.8 °F 27% 29.84 in 10.0 mi SSW 20.7 mph 31.1 mph N/A   Clear
6:52 AM 89.1 °F - 51.1 °F 27% 29.80 in 10.0 mi SSW 18.4 mph 31.1 mph N/A   Clear
7:52 AM 89.1 °F - 52.0 °F 28% 29.83 in 10.0 mi South 19.6 mph 27.6 mph N/A   Clear
8:52 AM 86.0 °F 84.2 °F 54.0 °F 33% 29.84 in 10.0 mi South 13.8 mph 20.7 mph N/A   Clear
9:52 AM 91.0 °F 88.9 °F 55.0 °F 29% 29.83 in 10.0 mi SSW 12.7 mph 23.0 mph N/A   Clear
10:52 AM 96.1 °F 94.1 °F 55.0 °F 25% 29.82 in 10.0 mi SSW 15.0 mph 25.3 mph N/A   Clear
11:52 AM 100.0 °F 97.9 °F 53.1 °F 21% 29.80 in 10.0 mi South 18.4 mph 28.8 mph N/A   Clear
12:52 PM 105.1 °F - 52.0 °F 17% 29.78 in 10.0 mi SW 23.0 mph 32.2 mph N/A   Clear
1:52 PM 107.1 °F - 51.1 °F 16% 29.77 in 10.0 mi SSW 20.7 mph 31.1 mph N/A   Clear
2:52 PM 108.0 °F - 51.1 °F 15% 29.75 in 10.0 mi SW 21.9 mph 32.2 mph N/A   Clear
3:52 PM 108.0 °F - 50.0 °F 15% 29.73 in 10.0 mi South 17.3 mph 31.1 mph N/A   Clear
4:52 PM 107.1 °F - 50.0 °F 15% 29.73 in 10.0 mi South 18.4 mph 27.6 mph N/A   Clear
5:52 PM 106.0 °F - 51.1 °F 16% 29.73 in 10.0 mi SSW 16.1 mph 28.8 mph N/A   Clear
6:52 PM 102.0 °F 99.7 °F 53.1 °F 19% 29.73 in 10.0 mi South 10.4 mph 19.6 mph N/A   Clear
7:52 PM 98.1 °F 95.7 °F 53.1 °F 22% 29.74 in 10.0 mi South 10.4 mph - N/A   Clear
8:52 PM 93.9 °F 92.0 °F 55.0 °F 27% 29.76 in 10.0 mi South 11.5 mph - N/A   Clear
9:52 PM 91.9 °F 90.0 °F 55.0 °F 29% 29.78 in 10.0 mi South 11.5 mph - N/A   Clear
10:52 PM 91.9 °F 90.0 °F 55.0 °F 29% 29.79 in 10.0 mi SSW 11.5 mph 18.4 mph N/A   Clear
11:52 PM 87.1 °F 85.9 °F 57.0 °F 36% 29.80 in 10.0 mi SSW 8.1 mph - N/A   Clear